This demonstration page uses our WeatherBlox Daily Observations layout. Learn more.

39.29038, -76.61219

Hourly Observations for April 16, 2019

Temp ( °F °C ) Dew Point ( °F °C ) Humidity (%) Winds ( mph kmh ) Pressure ( in mb ) Visibility ( mi km ) Precip ( " mm )
12:54 am 00:54 undefined 47 8.3 29 -1.7 50 50 undefined N/A 30.02 1017 N/A 0 0
1:54 am 01:54 undefined 45 7.2 29 -1.7 54 54 undefined N/A 30.05 1018 N/A 0 0
2:54 am 02:54 undefined 45 7.2 30 -1.1 56 56 undefined N/A 30.04 1017 N/A 0 0
3:54 am 03:54 undefined 44 6.7 32 0 63 63 undefined N/A 30.07 1018 N/A 0 0
4:54 am 04:54 undefined 44 6.7 32 0 63 63 undefined N/A 30.09 1019 N/A 0 0
5:54 am 05:54 undefined 44 6.7 32 0 63 63 undefined N/A 30.13 1020 N/A 0 0
6:54 am 06:54 undefined 45 7.2 32 0 61 61 undefined N/A 30.16 1021 N/A 0 0
7:54 am 07:54 undefined 49 9.4 33 0.6 55 55 undefined N/A 30.2 1023 N/A 0 0
8:54 am 08:54 undefined 50 10 33 0.6 52 52 undefined N/A 30.2 1023 N/A 0 0
9:54 am 09:54 undefined 54 12.2 32 0 43 43 undefined N/A 30.2 1023 N/A 0 0
10:54 am 10:54 undefined 56 13.3 30 -1.1 37 37 undefined N/A 30.19 1022 N/A 0 0
11:54 am 11:54 undefined 58 14.4 30 -1.1 35 35 undefined N/A 30.19 1022 N/A 0 0
12:54 pm 12:54 undefined 62 16.7 29 -1.7 29 29 undefined N/A 30.17 1022 N/A 0 0
1:54 pm 13:54 undefined 64 17.8 29 -1.7 27 27 undefined N/A 30.13 1020 N/A 0 0
2:54 pm 14:54 undefined 66 18.9 34 1.1 30 30 undefined N/A 30.11 1020 N/A 0 0
3:54 pm 15:54 undefined 67 19.4 33 0.6 28 28 undefined N/A 30.06 1018 N/A 0 0
4:54 pm 16:54 undefined 68 20 33 0.6 27 27 undefined N/A 30.04 1017 N/A 0 0
5:54 pm 17:54 undefined 67 19.4 34 1.1 30 30 undefined N/A 30.03 1017 N/A 0 0
6:54 pm 18:54 undefined 67 19.4 34 1.1 30 30 undefined N/A 30.02 1017 N/A 0 0
7:54 pm 19:54 undefined 66 18.9 35 1.7 32 32 undefined N/A 30.02 1017 N/A 0 0
8:54 pm 20:54 undefined 63 17.2 42 5.6 47 47 undefined N/A 30.04 1017 N/A 0 0
9:54 pm 21:54 undefined 63 17.2 38 3.3 40 40 undefined N/A 30.03 1017 N/A 0 0
10:54 pm 22:54 undefined 60 15.6 38 3.3 44 44 undefined N/A 30.02 1017 N/A 0 0
11:54 pm 23:54 undefined 59 15 39 3.9 48 48 undefined N/A 30.01 1016 N/A 0 0

Powered by AerisWeather